F6HBW-13 Weather Reports


Display with metric or nautical units.
time (UTC)temp
F
wind
direction
speed
MPH
gust
MPH
rain 1hr
in
rain 24hr
in
rain mn
in
humidity
%
barometer
mb
20260507104730 65 67 1.0 6.0 0.00 0.00 0.00 59 1014.6
20260507104323 65 28 0.0 3.0 0.00 0.00 0.00 56 1014.6
20260507103732 66 98 0.0 8.0 0.00 0.00 0.00 57 1014.6
20260507102735 66 67 0.0 2.0 0.00 0.00 0.00 58 1014.6
20260507101733 65 56 0.0 0.0 0.00 0.00 0.00 57 1014.7
20260507101340 64 56 0.0 0.0 0.00 0.00 0.00 58 1014.7
20260507100746 64 54 0.0 2.0 0.00 0.00 0.00 58 1014.7
20260507095726 62 121 0.0 1.0 0.00 0.04 0.00 57 1014.8
20260507094726 61 24 0.0 4.0 0.00 0.04 0.00 62 1014.8
20260507094332 61 55 1.0 4.0 0.00 0.04 0.00 63 1014.8
20260507093719 60 39 0.0 3.0 0.00 0.04 0.00 67 1014.8
20260507092718 58 2 0.0 4.0 0.00 0.04 0.00 69 1014.8
20260507091715 57 65 0.0 3.0 0.00 0.04 0.00 70 1014.8
20260507091322 56 66 0.0 3.0 0.00 0.04 0.00 72 1014.8
20260507090726 56 48 0.0 3.0 0.00 0.04 0.00 71 1014.8
20260507085749 55 66 0.0 2.0 0.00 0.04 0.00 75 1014.6
20260507084730 54 103 0.0 0.0 0.00 0.04 0.00 77 1014.6
20260507084322 54 90 0.0 3.0 0.00 0.04 0.00 79 1014.6
20260507083726 54 76 1.0 3.0 0.00 0.04 0.00 80 1014.7
20260507082733 53 66 0.0 4.0 0.00 0.04 0.00 81 1014.5
20260507081700 53 46 0.0 0.0 0.00 0.04 0.00 82 1014.6
20260507081309 52 46 0.0 0.0 0.00 0.04 0.00 82 1014.6
20260507080715 52 46 0.0 0.0 0.00 0.04 0.00 84 1014.7
20260507075701 52 68 0.0 1.0 0.00 0.04 0.00 85 1014.6
20260507074652 51 51 0.0 0.0 0.00 0.04 0.00 86 1014.6
20260507074301 51 50 0.0 0.0 0.00 0.04 0.00 86 1014.6
20260507073652 50 62 0.0 0.0 0.00 0.04 0.00 87 1014.6
20260507072659 50 56 0.0 2.0 0.00 0.04 0.00 88 1014.4
20260507071707 50 48 0.0 0.0 0.00 0.04 0.00 89 1014.5
20260507071257 49 60 0.0 0.0 0.00 0.04 0.00 89 1014.4
20260507070707 49 60 0.0 0.0 0.00 0.04 0.00 89 1014.5
20260507065653 49 60 0.0 3.0 0.00 0.04 0.00 89 1014.5
20260507064703 48 23 0.0 0.0 0.00 0.04 0.00 90 1014.4
20260507064311 48 23 0.0 0.0 0.00 0.04 0.00 90 1014.4
20260507063705 48 22 0.0 0.0 0.00 0.04 0.00 90 1014.4
20260507062654 47 46 0.0 0.0 0.00 0.04 0.00 89 1014.3
20260507061659 47 46 0.0 0.0 0.00 0.04 0.00 89 1014.3
20260507061308 47 46 0.0 0.0 0.00 0.04 0.00 89 1014.3
20260507060658 46 46 0.0 0.0 0.00 0.04 0.00 88 1014.4
20260507055707 46 46 0.0 0.0 0.00 0.04 0.00 88 1014.4
20260507054716 46 46 0.0 0.0 0.00 0.04 0.00 88 1014.3
20260507054325 46 46 0.0 0.0 0.00 0.04 0.00 88 1014.3
20260507053653 45 46 0.0 0.0 0.00 0.04 0.00 87 1014.3
20260507052656 45 46 0.0 0.0 0.00 0.04 0.00 86 1014.2
20260507051700 45 46 0.0 0.0 0.00 0.04 0.00 85 1014.1
20260507051308 45 46 0.0 0.0 0.00 0.04 0.00 85 1014.0
20260507050659 46 46 0.0 0.0 0.00 0.04 0.00 85 1014.0
20260507045729 46 46 0.0 0.0 0.00 0.04 0.00 84 1014.0
20260507044712 46 46 0.0 0.0 0.00 0.04 0.00 84 1013.8
20260507044300 46 46 0.0 0.0 0.00 0.04 0.00 84 1013.8
20260507043709 46 46 0.0 0.0 0.00 0.04 0.00 84 1013.7
20260507042716 47 46 0.0 0.0 0.00 0.04 0.00 84 1013.8
20260507041657 47 46 0.0 0.0 0.00 0.04 0.00 84 1013.7
20260507041305 47 46 0.0 0.0 0.00 0.04 0.00 84 1013.6
20260507040730 47 46 0.0 0.0 0.00 0.04 0.00 84 1013.6
20260507035655 48 46 0.0 0.0 0.00 0.04 0.00 84 1013.5
20260507034701 48 46 0.0 0.0 0.00 0.04 0.00 85 1013.5
20260507034255 48 46 0.0 0.0 0.00 0.04 0.00 85 1013.6
20260507033703 48 46 0.0 0.0 0.00 0.04 0.00 85 1013.6
20260507032730 48 46 1.0 3.0 0.00 0.04 0.00 85 1013.6
20260507031715 49 46 0.0 0.0 0.00 0.04 0.00 85 1013.6
20260507031307 49 46 0.0 0.0 0.00 0.04 0.00 85 1013.6
20260507030655 49 46 0.0 0.0 0.00 0.04 0.00 85 1013.6
20260507025702 49 46 0.0 0.0 0.00 0.08 0.00 85 1013.7
20260507024709 49 46 0.0 0.0 0.00 0.08 0.00 85 1013.5
20260507024303 49 46 0.0 0.0 0.00 0.08 0.00 85 1013.5
20260507023710 49 46 0.0 0.0 0.00 0.08 0.00 85 1013.5
20260507022700 49 46 0.0 0.0 0.00 0.08 0.00 85 1013.4
20260507021706 49 46 0.0 0.0 0.00 0.08 0.00 85 1013.3
20260507021300 49 46 0.0 0.0 0.00 0.08 0.00 85 1013.3
20260507020706 50 46 0.0 0.0 0.00 0.08 0.00 85 1013.3
20260507015657 50 46 0.0 0.0 0.00 0.20 0.00 84 1013.5
20260507014705 50 46 0.0 0.0 0.00 0.20 0.00 84 1013.2
20260507014254 50 46 0.0 0.0 0.00 0.20 0.00 84 1013.1
20260507013706 50 46 0.0 0.0 0.00 0.20 0.00 84 1013.1
20260507012654 50 46 0.0 0.0 0.00 0.20 0.00 84 1013.2
20260507011659 50 46 0.0 0.0 0.00 0.20 0.00 84 1013.1
20260507011308 50 46 0.0 0.0 0.00 0.20 0.00 84 1013.1
20260507010658 51 46 0.0 0.0 0.00 0.20 0.00 84 1013.1
20260507005707 51 46 0.0 0.0 0.00 0.20 0.00 84 1013.2
20260507004654 51 46 0.0 0.0 0.00 0.20 0.00 84 1013.2
20260507004303 51 46 0.0 0.0 0.00 0.20 0.00 84 1013.2
20260507003653 51 46 0.0 0.0 0.00 0.20 0.00 84 1013.2
20260507002659 51 46 0.0 0.0 0.00 0.20 0.00 85 1013.3
20260507001704 51 46 0.0 0.0 0.00 0.20 0.00 85 1013.3
20260507001257 52 46 0.0 0.0 0.00 0.20 0.00 85 1013.3
20260507000729 52 46 0.0 0.0 0.00 0.20 0.00 84 1013.3
20260506235654 52 46 0.0 0.0 0.00 0.24 0.00 85 1013.3
20260506234727 52 46 1.0 4.0 0.00 0.24 0.00 86 1013.1
20260506234257 52 46 1.0 4.0 0.00 0.24 0.00 86 1013.2
20260506233706 52 7 0.0 0.0 0.00 0.24 0.00 86 1013.1
20260506232715 53 7 0.0 0.0 0.00 0.24 0.00 86 1013.2
20260506231657 53 7 0.0 0.0 0.00 0.24 0.00 86 1013.1
20260506231335 53 7 0.0 0.0 0.00 0.24 0.00 85 1013.1
20260506230705 53 7 0.0 0.0 0.00 0.24 0.00 85 1013.1
20260506225727 53 7 0.0 0.0 0.00 0.24 0.00 85 1013.0
20260506224714 53 7 0.0 0.0 0.00 0.24 0.00 85 1013.1
20260506224307 53 7 0.0 0.0 0.00 0.24 0.00 85 1013.1
20260506223653 53 7 0.0 0.0 0.00 0.24 0.00 85 1013.1
20260506222702 53 7 0.0 0.0 0.00 0.24 0.00 84 1013.1
20260506221708 53 7 0.0 0.0 0.00 0.24 0.00 84 1013.0
20260506221301 53 7 0.0 0.0 0.00 0.24 0.00 84 1013.0
20260506220706 53 7 0.0 0.0 0.00 0.24 0.00 83 1013.0
20260506215658 53 7 0.0 0.0 0.00 0.24 0.05 83 1012.9
20260506214706 54 7 0.0 0.0 0.00 0.24 0.05 83 1012.7
20260506214256 54 7 0.0 0.0 0.00 0.24 0.05 83 1012.7
20260506213708 54 7 0.0 0.0 0.00 0.24 0.05 83 1012.6
20260506212655 54 7 0.0 0.0 0.00 0.24 0.05 82 1012.7
20260506211701 54 7 0.0 0.0 0.00 0.24 0.05 82 1012.7
20260506211312 54 7 0.0 0.0 0.00 0.24 0.05 82 1012.6
20260506210703 54 7 0.0 0.0 0.00 0.24 0.05 82 1012.7
20260506205711 54 7 0.0 0.0 0.00 0.24 0.05 82 1012.7
20260506204727 54 7 0.0 0.0 0.00 0.24 0.05 82 1012.6
20260506204255 54 7 0.0 0.0 0.00 0.24 0.05 82 1012.5
20260506203706 54 7 0.0 0.0 0.00 0.24 0.05 81 1012.5
20260506202710 55 7 0.0 0.0 0.00 0.24 0.05 81 1012.5
20260506201714 55 7 0.0 0.0 0.00 0.24 0.05 81 1012.4
20260506201300 55 7 0.0 0.0 0.00 0.24 0.05 80 1012.3
20260506200704 55 7 0.0 0.0 0.00 0.24 0.05 80 1012.2
20260506195711 55 7 0.0 0.0 0.00 0.24 0.05 79 1012.1
20260506194655 56 15 0.0 0.0 0.00 0.24 0.05 78 1012.0
20260506194300 56 15 0.0 0.0 0.00 0.24 0.05 77 1012.0
20260506193729 56 15 0.0 0.0 0.00 0.24 0.05 77 1011.9
20260506192707 56 15 0.0 0.0 0.00 0.24 0.05 76 1011.8
20260506191708 56 15 0.0 0.0 0.00 0.24 0.05 76 1011.6
20260506191315 57 15 0.0 0.0 0.00 0.24 0.05 75 1011.6
20260506190718 57 13 0.0 0.0 0.00 0.24 0.05 75 1011.5
20260506185704 57 14 0.0 0.0 0.00 0.24 0.05 74 1011.4
20260506184654 57 14 0.0 3.0 0.00 0.24 0.05 73 1011.3
20260506184303 57 14 0.0 2.0 0.00 0.24 0.05 73 1011.4
20260506183708 57 17 0.0 3.0 0.00 0.24 0.05 72 1011.4
20260506182701 57 17 0.0 4.0 0.00 0.24 0.05 72 1011.3
20260506181705 58 347 0.0 4.0 0.00 0.24 0.05 72 1011.2
20260506181314 58 346 0.0 4.0 0.00 0.24 0.05 71 1011.2
20260506180723 58 2 0.0 4.0 0.00 0.24 0.05 70 1011.2
20260506175731 58 14 0.0 2.0 0.00 0.24 0.05 69 1011.0
20260506174656 58 7 1.0 5.0 0.00 0.24 0.05 68 1010.9
20260506174311 59 31 0.0 3.0 0.00 0.24 0.05 68 1011.0
20260506173657 59 38 1.0 4.0 0.00 0.24 0.05 68 1010.9
20260506172705 59 52 0.0 3.0 0.00 0.24 0.05 68 1010.9
20260506171655 59 56 1.0 5.0 0.00 0.24 0.05 68 1010.9
20260506171304 59 48 2.0 5.0 0.00 0.24 0.05 67 1010.9
20260506170657 59 63 0.0 4.0 0.00 0.24 0.05 66 1010.9
20260506165704 59 33 0.0 3.0 0.00 0.24 0.05 66 1010.8
20260506164728 60 29 0.0 2.0 0.00 0.24 0.05 65 1010.8
20260506164302 60 15 0.0 3.0 0.00 0.24 0.05 65 1010.7
20260506163654 60 47 0.0 8.0 0.00 0.24 0.05 65 1010.7
20260506162719 60 69 0.0 2.0 0.00 0.24 0.05 64 1010.7
20260506161705 60 65 0.0 3.0 0.00 0.24 0.05 66 1010.7
20260506161318 60 84 0.0 3.0 0.00 0.24 0.05 66 1010.7
20260506160704 60 65 0.0 4.0 0.00 0.24 0.05 64 1010.8
20260506155711 60 46 1.0 8.0 0.00 0.24 0.05 65 1010.7
20260506154718 61 55 1.0 6.0 0.00 0.24 0.05 65 1010.6
20260506154311 61 37 2.0 6.0 0.00 0.24 0.05 65 1010.6
20260506153720 61 40 0.0 0.0 0.00 0.24 0.05 66 1010.7
20260506152707 61 49 0.0 2.0 0.00 0.24 0.05 67 1010.6
20260506151716 60 73 0.0 4.0 0.00 0.24 0.05 65 1010.6
20260506151330 61 73 1.0 6.0 0.00 0.24 0.05 66 1010.6
20260506150655 61 67 1.0 8.0 0.00 0.24 0.05 67 1010.7
20260506145703 60 12 1.0 8.0 0.00 0.24 0.05 67 1010.7
20260506144708 60 14 1.0 9.0 0.00 0.24 0.05 70 1010.7
20260506144320 60 53 2.0 9.0 0.00 0.24 0.05 71 1010.8
20260506143723 60 38 1.0 8.0 0.00 0.24 0.05 70 1010.8
20260506142709 59 67 4.0 9.0 0.00 0.24 0.05 70 1010.8
20260506141655 59 46 2.0 9.0 0.00 0.24 0.05 70 1010.8
20260506141310 59 30 4.0 9.0 0.00 0.24 0.05 71 1010.8
20260506140655 59 13 1.0 5.0 0.00 0.24 0.05 74 1010.8
20260506135700 59 2 3.0 10.0 0.00 0.31 0.05 75 1010.9
20260506134707 59 28 2.0 11.0 0.00 0.31 0.05 73 1010.8
20260506134323 59 2 3.0 11.0 0.00 0.31 0.05 73 1010.8
20260506133707 59 11 3.0 11.0 0.00 0.31 0.05 74 1010.8
20260506132710 58 55 2.0 10.0 0.00 0.31 0.05 75 1010.8
20260506131655 58 60 4.0 9.0 0.00 0.31 0.05 76 1010.7
20260506131310 58 52 2.0 7.0 0.00 0.31 0.05 75 1010.7
20260506130654 58 73 3.0 10.0 0.00 0.31 0.05 77 1010.7
20260506125658 58 21 2.0 9.0 0.00 0.31 0.05 78 1010.6
20260506124705 58 49 2.0 10.0 0.00 0.31 0.05 78 1010.5
20260506124317 58 59 4.0 9.0 0.00 0.31 0.05 78 1010.5
20260506123704 57 51 2.0 11.0 0.00 0.31 0.05 76 1010.5
20260506122713 57 68 4.0 12.0 0.00 0.31 0.05 76 1010.4
20260506121657 57 55 5.0 13.0 0.00 0.31 0.05 78 1010.3
20260506121309 57 36 5.0 9.0 0.00 0.31 0.05 79 1010.3
20260506120656 57 67 3.0 9.0 0.00 0.31 0.05 79 1010.2
20260506115702 57 80 5.0 10.0 0.00 0.31 0.05 79 1010.3
20260506114709 57 70 2.0 8.0 0.00 0.31 0.05 80 1010.4
20260506114302 57 64 3.0 9.0 0.00 0.31 0.05 80 1010.3
20260506113707 56 32 2.0 6.0 0.00 0.31 0.05 82 1010.4
20260506112656 56 57 2.0 9.0 0.00 0.31 0.05 82 1010.3
20260506111659 56 24 3.0 8.0 0.00 0.31 0.05 85 1010.3
20260506111334 56 61 4.0 10.0 0.00 0.31 0.05 85 1010.3
20260506110657 56 13 5.0 10.0 0.00 0.31 0.05 87 1010.3
20260506105721 55 53 2.0 10.0 0.00 0.31 0.05 88 1010.3